Regional Weather Roundup
Issued by NWS

Home | Current Version | Previous Version | Graphics & Text | Print | Product List | Glossary On
Versions: 1 2 3 4 5 6 7 8 9 10 11 12 13 14 15 16 17 18 19 20 21 22 23 24 25 26 27 28 29 30 31 32 33 34 35 36 37 38 39 40 41 42 43 44 45 46 47 48 49 50
366
ASUS43 KBIS 101010
RWRND

NORTH DAKOTA REGIONAL WEATHER ROUNDUP
NATIONAL WEATHER SERVICE BISMARCK ND
400 AM CST WED FEB 10 2016

NOTE: "FAIR" INDICATES FEW OR NO CLOUDS BELOW 12,000 FEET WITH NO
SIGNIFICANT WEATHER AND/OR OBSTRUCTIONS TO VISIBILITY.


NDZ001>003-009>011-017-101100-
NORTHWEST NORTH DAKOTA

CITY           SKY/WX    TMP DP  RH WIND       PRES   REMARKS
WILLISTON      CLOUDY    24  21  88 SW6       29.82F WCI  17
MINOT          CLOUDY    20  13  74 E15       29.87F WCI   6
MINOT AFB      CLOUDY    17  15  89 SE17      29.87F WCI   2
$$

NDZ018>021-031>035-040>046-101100-
SOUTHWEST NORTH DAKOTA

CITY           SKY/WX    TMP DP  RH WIND       PRES   REMARKS
BISMARCK       CLOUDY    28  21  75 E10       29.90F WCI  19
DICKINSON      CLOUDY    28  23  81 W7        29.81F
GARRISON         N/A     22  19  89 SE12      29.84F WCI  10
HETTINGER ARPT CLOUDY    26  22  84 CALM      29.87F
$$

NDZ004>008-012>016-024-026-027-054-101100-
NORTHEAST NORTH DAKOTA

CITY           SKY/WX    TMP DP  RH WIND       PRES   REMARKS
GRAND FORKS    CLOUDY     5  -4  66 E8        30.14F WCI  -8
GRND FRKS AFB  CLOUDY     3  -4  72 SE6       30.13F WCI  -8
DEVILS LAKE    LGT SNOW   5   1  83 SE13      30.03F FOG     WCI -12
$$

NDZ022-023-025-028>030-036>039-047>053-101100-
SOUTHEAST NORTH DAKOTA

CITY           SKY/WX    TMP DP  RH WIND       PRES   REMARKS
FARGO          CLOUDY     6  -1  73 CALM      30.12F
JAMESTOWN      LGT SNOW   9   5  84 SE13      30.01F FOG     WCI  -7
$$





USA.gov is the U.S. government's official web portal to all federal, state and local government web resources and services.